TimeEDT,TemperatureF,Dew PointF,Humidity,Sea Level PressureIn,VisibilityMPH,Wind Direction,Wind SpeedMPH,Gust SpeedMPH,PrecipitationIn,Events,Conditions,WindDirDegrees,DateUTC
12:12 AM,77.2,65.7,67,29.93,10.0,SW,3.5,-,N/A,,Clear,220,2013-06-24 04:12:00
12:31 AM,76.1,65.7,70,29.92,10.0,Calm,Calm,-,N/A,,Clear,0,2013-06-24 04:31:00
12:52 AM,75.4,66.2,73,29.92,10.0,Calm,Calm,-,N/A,,Clear,0,2013-06-24 04:52:00
1:12 AM,74.5,66.2,75,29.93,10.0,North,-9999.0,-,N/A,,Clear,0,2013-06-24 05:12:00
1:32 AM,73.6,66.2,78,29.93,10.0,North,-9999.0,-,N/A,,Clear,0,2013-06-24 05:32:00
1:52 AM,72.0,66.4,83,29.93,10.0,North,-9999.0,-,N/A,,Clear,0,2013-06-24 05:52:00
2:12 AM,71.2,66.6,85,29.93,10.0,North,-9999.0,-,N/A,,Clear,0,2013-06-24 06:12:00
2:32 AM,71.4,66.9,86,29.93,10.0,North,-9999.0,-,N/A,,Clear,0,2013-06-24 06:32:00
2:52 AM,71.1,66.9,87,29.93,10.0,North,-9999.0,-,N/A,,Clear,0,2013-06-24 06:52:00
3:12 AM,72.9,67.3,83,29.94,10.0,North,-9999.0,-,N/A,,Clear,0,2013-06-24 07:12:00
3:32 AM,72.9,67.3,83,29.94,10.0,North,-9999.0,-,N/A,,Clear,0,2013-06-24 07:32:00
3:52 AM,73.2,67.3,82,29.93,10.0,North,-9999.0,-,N/A,,Clear,0,2013-06-24 07:52:00
4:12 AM,72.7,67.1,83,29.94,10.0,SSW,4.6,-,N/A,,Clear,200,2013-06-24 08:12:00
4:32 AM,72.3,66.7,83,29.94,10.0,North,-9999.0,-,N/A,,Clear,0,2013-06-24 08:32:00
4:52 AM,72.0,66.6,83,29.94,10.0,North,-9999.0,-,N/A,,Clear,0,2013-06-24 08:52:00
5:12 AM,71.6,66.4,84,29.94,10.0,South,4.6,-,N/A,,Clear,170,2013-06-24 09:12:00
5:32 AM,70.5,66.2,86,29.94,10.0,Calm,Calm,-,N/A,,Clear,0,2013-06-24 09:32:00
5:52 AM,70.2,66.2,87,29.94,10.0,SSW,3.5,-,N/A,,Clear,210,2013-06-24 09:52:00
6:12 AM,69.8,66.2,88,29.95,10.0,North,-9999.0,-,N/A,,Clear,0,2013-06-24 10:12:00
6:32 AM,70.2,66.2,87,29.95,10.0,North,-9999.0,-,N/A,,Clear,0,2013-06-24 10:32:00
6:53 AM,70.5,66.2,86,29.95,10.0,North,-9999.0,-,N/A,,Clear,0,2013-06-24 10:53:00
7:15 AM,71.2,66.2,84,29.95,10.0,North,-9999.0,-,N/A,,Clear,0,2013-06-24 11:15:00
7:35 AM,71.8,66.2,83,29.96,10.0,North,-9999.0,-,N/A,,Clear,0,2013-06-24 11:35:00
7:54 AM,72.5,66.2,81,29.96,10.0,North,-9999.0,-,N/A,,Clear,0,2013-06-24 11:54:00
8:15 AM,73.4,66.6,79,29.95,10.0,North,-9999.0,-,N/A,,Clear,0,2013-06-24 12:15:00
8:35 AM,73.8,66.6,78,29.95,10.0,North,-9999.0,-,N/A,,Clear,0,2013-06-24 12:35:00
8:54 AM,74.8,67.1,77,29.95,10.0,North,-9999.0,-,N/A,,Clear,0,2013-06-24 12:54:00
9:15 AM,76.1,67.3,74,29.95,10.0,North,-9999.0,-,N/A,,Clear,0,2013-06-24 13:15:00
9:34 AM,76.8,67.3,72,29.96,10.0,WSW,8.1,-,N/A,,Clear,240,2013-06-24 13:34:00
9:55 AM,77.4,67.1,71,29.96,10.0,North,-9999.0,-,N/A,,Clear,0,2013-06-24 13:55:00
10:15 AM,78.1,67.5,70,29.96,10.0,North,-9999.0,-,N/A,,Clear,0,2013-06-24 14:15:00
10:35 AM,79.0,67.6,68,29.96,10.0,SW,6.9,-,N/A,,Clear,220,2013-06-24 14:35:00
10:55 AM,80.8,67.8,65,29.96,10.0,WSW,5.8,-,N/A,,Clear,250,2013-06-24 14:55:00
11:15 AM,81.0,67.6,64,29.97,10.0,WSW,5.8,-,N/A,,Clear,240,2013-06-24 15:15:00
11:35 AM,81.0,67.6,64,29.97,10.0,WSW,6.9,-,N/A,,Clear,240,2013-06-24 15:35:00
11:55 AM,81.0,67.1,63,29.97,10.0,West,6.9,-,N/A,,Clear,280,2013-06-24 15:55:00
12:15 PM,82.0,67.1,60,29.97,10.0,WSW,8.1,-,N/A,,Clear,250,2013-06-24 16:15:00
12:35 PM,81.7,67.5,62,29.97,10.0,WSW,9.2,-,N/A,,Scattered Clouds,250,2013-06-24 16:35:00
12:55 PM,81.9,67.1,61,29.96,10.0,WSW,8.1,-,N/A,,Mostly Cloudy,250,2013-06-24 16:55:00
1:15 PM,82.4,67.3,60,29.95,10.0,West,3.5,-,N/A,,Mostly Cloudy,260,2013-06-24 17:15:00
1:35 PM,81.0,67.5,63,29.95,10.0,WSW,5.8,-,N/A,,Mostly Cloudy,250,2013-06-24 17:35:00
1:55 PM,81.5,68.0,63,29.95,10.0,WSW,6.9,-,N/A,,Mostly Cloudy,250,2013-06-24 17:55:00
2:15 PM,82.4,68.2,62,29.94,10.0,SW,4.6,-,N/A,,Clear,230,2013-06-24 18:15:00
2:35 PM,83.1,67.6,59,29.92,10.0,WSW,9.2,-,N/A,,Clear,240,2013-06-24 18:35:00
2:55 PM,83.7,67.6,58,29.91,10.0,WSW,6.9,-,N/A,,Scattered Clouds,240,2013-06-24 18:55:00
3:15 PM,84.4,66.9,56,29.92,10.0,North,-9999.0,-,N/A,,Scattered Clouds,0,2013-06-24 19:15:00
3:35 PM,85.5,66.6,53,29.92,10.0,SW,8.1,-,N/A,,Scattered Clouds,220,2013-06-24 19:35:00
3:55 PM,84.6,65.5,53,29.91,10.0,WSW,9.2,-,N/A,,Scattered Clouds,240,2013-06-24 19:55:00
4:15 PM,84.6,65.5,53,29.90,10.0,North,-9999.0,-,N/A,,Mostly Cloudy,0,2013-06-24 20:15:00
4:35 PM,84.6,65.3,52,29.89,10.0,North,-9999.0,-,N/A,,Mostly Cloudy,0,2013-06-24 20:35:00
4:55 PM,84.9,65.5,52,29.88,10.0,North,-9999.0,-,N/A,,Mostly Cloudy,0,2013-06-24 20:55:00
5:15 PM,84.2,65.3,53,29.88,10.0,SW,8.1,-,N/A,,Scattered Clouds,230,2013-06-24 21:15:00
5:35 PM,84.2,65.5,53,29.88,10.0,North,-9999.0,-,N/A,,Scattered Clouds,0,2013-06-24 21:35:00
5:56 PM,84.2,65.5,53,29.87,10.0,SW,5.8,-,N/A,,Scattered Clouds,220,2013-06-24 21:56:00
6:15 PM,83.8,65.5,54,29.87,10.0,SW,6.9,-,N/A,,Clear,220,2013-06-24 22:15:00
6:35 PM,82.9,65.3,55,29.87,10.0,SW,6.9,-,N/A,,Clear,230,2013-06-24 22:35:00
6:56 PM,83.1,65.5,55,29.88,10.0,SW,5.8,-,N/A,,Clear,230,2013-06-24 22:56:00
7:15 PM,82.8,65.8,56,29.88,10.0,North,-9999.0,-,N/A,,Clear,0,2013-06-24 23:15:00
7:35 PM,81.1,66.2,60,29.88,10.0,WSW,3.5,-,N/A,,Clear,240,2013-06-24 23:35:00
7:55 PM,81.7,66.4,60,29.88,10.0,WSW,3.5,-,N/A,,Clear,250,2013-06-24 23:55:00
8:15 PM,80.6,66.4,62,29.88,10.0,WSW,6.9,-,N/A,,Clear,240,2013-06-25 00:15:00
8:35 PM,79.2,66.6,65,29.87,10.0,Calm,Calm,-,N/A,,Clear,0,2013-06-25 00:35:00
8:55 PM,77.9,66.6,68,29.87,10.0,WSW,4.6,-,N/A,,Clear,250,2013-06-25 00:55:00
9:15 PM,77.0,66.7,70,29.87,10.0,Calm,Calm,-,N/A,,Scattered Clouds,0,2013-06-25 01:15:00
9:36 PM,75.7,66.6,73,29.86,10.0,SW,3.5,-,N/A,,Clear,220,2013-06-25 01:36:00
9:55 PM,75.2,66.4,74,29.86,10.0,North,-9999.0,-,N/A,,Clear,0,2013-06-25 01:55:00
10:15 PM,73.9,66.4,77,29.87,10.0,North,-9999.0,-,N/A,,Clear,0,2013-06-25 02:15:00
10:36 PM,72.7,66.6,81,29.87,10.0,North,-9999.0,-,N/A,,Clear,0,2013-06-25 02:36:00
10:55 PM,72.9,66.4,80,29.87,10.0,North,-9999.0,-,N/A,,Clear,0,2013-06-25 02:55:00
11:15 PM,72.1,66.4,82,29.87,10.0,North,-9999.0,-,N/A,,Clear,0,2013-06-25 03:15:00
11:36 PM,71.6,66.2,83,29.87,10.0,North,-9999.0,-,N/A,,Clear,0,2013-06-25 03:36:00
11:55 PM,70.9,66.2,85,29.88,10.0,North,-9999.0,-,N/A,,Clear,0,2013-06-25 03:55:00